User: anonymous   Login
Location: Ostrava
(49.8330°N, 18.2830°E)
Time: 08:44:33
(UTC+02:00)
Language:

Cosmos 2219 Rocket - Orbit

View from above orbital plane
View from above orbital plane
View from above satellite
View from above satellite

Ground track
Ground track

The orbit data is extracted from the following two-line orbital elements,

1 22220U 92076B   18116.47033576 -.00000111 +00000-0 -31783-4 0  9995
2 22220 070.9981 119.7943 0012050 165.9992 302.5710 14.16431821314802
Epoch (UTC): 26 April 2018 11:17:17
Eccentricity: 0.0012050
inclination: 70.9981°
perigee height: 829 km
apogee height: 846 km
right ascension of ascending node: 119.7943°
argument of perigee: 165.9992°
revolutions per day: 14.16431821
mean anomaly at epoch: 302.5710°
orbit number at epoch: 31480

The dashed part of the orbit path shows where the satellite is in the earth's shadow,  

DLR